Lapse_Rate
4.8 5.4 5.0 4.3 4.6 4.5 4.2 4.6 4.8 5.8 5.8 6.3 5.9 5.7 5.9 6.1 6.4 6.9 6.8 6.5 7.3 8.1 8.2 8.3 7.9 7.8 8.0 7.6 7.4 6.8 6.8 7.8 7.3 6.9 5.3 5.0 5.2 4.2 5.6 5.6 5.6 5.6 5.9 5.3
5.1 5.2 5.1 5.1 5.2 5.2 4.7 4.9 5.3 5.5 5.9 6.1 5.5 5.5 5.5 5.8 5.8 5.8 6.0 6.1 6.4 6.4 6.9 7.1 6.8 7.2 7.5 7.1 6.6 6.2 6.2 6.0 6.5 6.5 6.2 5.6 6.0 5.6 5.5 5.4 4.9 4.9 5.8 5.3
5.1 5.4 5.1 5.8 5.9 5.3 5.0 4.9 5.0 5.1 4.9 5.2 5.2 5.3 5.2 5.2 5.2 5.3 5.2 5.2 5.5 6.1 6.2 6.6 6.8 6.7 6.6 6.3 6.4 6.3 6.1 6.2 6.5 6.2 6.4 6.4 6.1 6.1 5.7 5.7 5.5 6.4 6.5 6.3
5.6 6.0 3.6 6.7 6.3 6.5 5.6 4.8 4.8 4.9 5.0 4.7 4.4 4.4 4.2 4.4 4.7 4.9 4.6 4.7 4.9 5.1 5.2 5.8 6.1 6.4 6.8 6.7 6.5 6.3 6.4 6.3 6.0 6.3 6.3 6.4 6.3 6.3 6.5 6.6 6.6 6.7 6.6 6.6
6.5 6.9 6.5 7.0 6.1 6.2 5.4 5.5 4.9 4.8 4.8 5.1 4.8 4.2 4.0 3.8 3.8 4.0 4.3 4.4 4.5 5.0 5.1 5.3 5.4 5.5 5.7 6.0 5.9 5.9 6.2 6.3 6.2 6.2 6.2 6.2 6.2 6.3 6.4 6.4 6.6 6.6 6.6 6.5
7.7 7.6 6.0 6.2 6.7 6.8 5.7 6.0 5.4 5.0 4.8 4.9 5.4 5.1 4.2 3.5 3.6 3.6 3.8 4.2 4.1 4.4 4.9 5.0 5.2 5.0 5.2 5.7 5.8 5.4 5.6 6.0 6.5 6.2 6.3 6.4 6.2 6.1 6.2 6.3 6.4 6.4 6.7 7.2
8.1 8.0 7.7 6.8 7.4 7.6 7.0 5.2 5.2 5.6 5.4 5.4 5.5 5.4 4.7 4.2 3.6 3.3 3.7 3.8 4.0 4.0 4.2 4.6 4.8 5.1 5.0 4.9 5.3 5.3 5.3 5.6 6.1 6.8 6.5 6.5 6.6 6.6 6.6 6.7 6.5 6.3 6.3 6.5
7.9 8.0 8.0 7.2 7.3 7.0 6.8 6.3 5.8 6.5 5.9 5.5 6.0 5.5 5.2 4.9 4.6 4.2 4.1 3.3 3.1 3.4 3.6 3.9 4.5 4.7 4.8 4.8 4.9 5.2 5.3 5.2 5.5 5.9 6.7 6.7 6.7 6.9 6.9 7.0 7.0 6.8 6.4 6.4
7.6 7.5 7.1 7.0 7.0 7.0 7.0 7.0 7.0 6.3 6.4 5.6 5.4 5.7 5.4 5.3 4.8 4.7 4.8 4.7 4.1 3.5 3.3 3.4 3.8 4.2 4.3 4.7 5.1 5.2 5.4 5.5 5.4 5.5 5.7 6.2 6.4 6.4 6.7 6.8 6.8 6.8 7.0 6.8
7.5 7.6 7.2 6.8 6.8 6.8 6.8 6.9 7.2 7.2 7.0 6.6 5.4 5.6 5.1 4.8 4.3 4.3 3.9 4.1 4.3 4.1 4.0 4.1 3.4 3.8 4.2 4.7 5.0 5.1 5.2 5.3 5.5 5.6 5.7 5.8 6.0 6.3 6.4 6.5 6.6 6.6 6.6 6.8
7.6 7.8 7.5 7.3 7.1 6.8 6.9 7.0 7.0 6.6 7.1 6.9 6.9 6.1 5.8 5.3 5.1 5.0 4.2 3.9 3.7 3.6 3.4 3.9 4.0 3.7 3.6 3.8 4.1 4.8 5.3 5.4 5.4 5.5 5.7 5.7 5.9 6.2 6.4 6.6 6.7 6.9 6.8 6.7
8.1 8.1 7.8 7.5 7.5 7.4 6.9 6.7 6.8 6.7 6.7 6.7 6.9 7.2 6.4 5.9 5.7 5.6 5.3 4.6 4.2 4.2 4.0 3.8 3.8 3.7 3.6 3.4 3.4 3.8 4.2 4.7 5.3 5.6 6.0 6.1 6.2 6.1 6.2 6.5 6.7 6.8 6.7 6.8
8.7 8.6 8.4 8.1 7.8 7.4 7.1 6.9 6.7 6.9 7.1 7.0 6.9 7.0 7.4 6.5 6.1 5.6 5.5 5.2 4.9 4.4 4.4 4.3 4.0 3.7 3.9 3.7 3.4 3.3 3.3 3.5 4.0 4.3 4.7 5.2 5.6 6.1 6.2 6.3 6.5 6.6 6.6 6.7
8.6 8.8 8.8 8.7 8.3 8.0 7.5 7.3 6.8 6.6 6.5 6.9 6.9 6.8 7.1 7.3 7.1 6.2 5.6 5.5 5.4 5.3 5.0 4.7 4.5 4.1 3.8 3.8 3.7 3.6 3.5 3.7 3.7 3.8 4.2 4.4 4.7 4.8 5.0 5.3 5.7 6.0 5.9 6.0
8.6 8.6 8.8 8.6 8.6 8.5 8.3 7.8 7.3 6.9 6.8 6.6 6.9 6.8 6.8 7.0 7.4 7.7 6.7 5.7 5.5 5.5 5.7 5.6 5.5 5.0 4.4 4.2 3.7 3.5 3.6 3.5 3.6 3.7 4.0 4.4 4.5 4.6 4.8 5.0 5.1 5.3 5.4 5.4
8.3 8.4 8.4 8.5 8.5 8.6 8.6 8.7 8.5 7.9 7.5 7.0 6.6 6.7 6.9 6.8 6.9 7.2 7.6 7.0 5.9 5.2 5.3 5.5 5.4 5.2 5.1 5.2 4.6 4.2 4.2 3.9 3.8 3.8 3.9 4.0 3.9 3.9 4.1 4.0 4.5 4.8 5.2 5.3
8.3 8.4 8.4 8.4 8.4 8.3 8.3 8.4 8.4 8.3 8.0 7.7 7.3 6.7 6.5 6.9 6.9 6.9 7.0 7.2 7.3 6.5 5.8 5.4 5.5 5.6 5.2 5.0 5.0 4.8 4.7 4.5 3.9 3.6 3.8 3.8 3.7 3.7 3.6 3.7 3.6 3.8 3.9 4.1
8.4 8.3 8.2 8.1 8.0 8.0 8.0 8.1 8.3 8.3 8.2 8.2 7.9 7.4 7.0 6.8 6.7 6.7 6.9 7.0 7.1 6.9 6.2 5.8 5.7 5.7 6.0 5.8 5.1 4.8 4.5 4.4 4.5 4.2 3.9 3.7 3.7 3.9 3.9 4.0 3.9 3.7 3.7 3.5
7.9 7.3 7.1 7.0 7.2 7.2 7.4 7.5 7.6 7.8 7.8 7.8 8.2 8.0 8.0 7.6 7.0 6.7 6.7 6.7 6.8 6.8 6.5 6.2 6.2 5.9 5.5 5.8 5.8 5.4 4.9 4.5 4.4 4.5 4.1 3.9 3.9 3.7 3.5 3.6 3.7 3.5 3.4 3.2
6.4 6.2 6.0 5.9 6.1 6.2 6.3 6.5 6.6 7.1 7.5 7.7 8.1 7.7 8.1 8.3 8.1 7.6 7.3 6.7 6.6 6.5 6.6 6.4 6.1 6.2 5.9 5.7 5.4 5.4 5.3 4.8 4.4 4.5 4.5 4.3 4.0 3.7 3.4 3.3 3.2 3.1 3.0 3.2
5.5 5.3 5.4 5.4 5.8 6.1 6.1 6.0 5.9 6.1 6.3 6.6 7.2 7.6 8.1 8.1 7.8 7.7 7.6 7.4 7.2 7.0 6.6 6.4 6.4 6.1 6.0 5.8 5.5 5.4 5.5 5.5 5.4 4.9 4.8 4.6 4.2 3.8 3.7 3.5 3.4 3.5 3.3 3.3
5.1 5.4 5.6 5.7 5.6 5.7 5.8 5.8 5.8 5.7 5.7 5.9 6.4 7.0 7.7 8.0 8.3 8.4 7.8 7.3 7.4 7.5 7.4 7.1 7.0 6.7 6.4 6.3 6.0 5.7 5.5 5.3 5.3 5.2 5.1 4.9 4.8 4.7 4.5 4.4 4.2 4.1 4.0 4.0
5.2 5.5 5.8 5.8 5.7 5.7 5.8 5.8 5.7 5.6 5.7 5.6 5.8 6.3 7.0 7.5 7.8 7.8 7.6 7.6 7.4 7.3 7.7 7.8 7.7 7.4 7.2 7.0 6.8 6.7 6.1 5.7 5.4 5.3 5.3 5.3 5.3 5.1 5.0 4.8 4.7 4.6 4.7 4.7
5.5 5.8 5.9 5.9 5.8 5.8 5.8 5.8 5.7 5.6 5.5 5.6 5.6 5.6 5.8 6.2 6.9 7.2 7.1 7.5 7.4 7.2 7.4 7.7 7.8 7.8 8.0 8.0 7.8 7.6 7.5 7.2 6.8 6.4 6.0 5.5 5.3 5.1 5.0 4.9 4.9 4.9 4.9 4.9
5.9 6.1 6.0 5.9 5.9 5.9 5.8 5.8 5.8 5.7 5.5 5.5 5.5 5.6 5.5 5.6 5.9 6.4 6.4 6.8 7.1 7.0 6.8 7.0 7.2 7.4 7.5 7.6 7.7 7.7 7.8 7.7 7.5 7.3 6.7 6.1 5.7 5.4 5.2 5.1 5.0 5.0 5.0 5.1
6.2 6.3 6.1 6.0 5.8 5.8 5.8 5.9 5.9 5.8 5.7 5.7 5.7 5.7 5.7 5.6 5.6 5.8 6.2 6.4 6.6 6.7 6.8 6.9 7.0 7.2 7.2 7.3 7.3 7.3 7.4 7.4 7.3 7.1 7.0 6.9 6.6 6.3 6.0 5.7 5.5 5.4 5.4 5.4
6.4 6.1 6.0 6.0 5.9 5.9 6.0 6.0 6.1 6.3 6.2 6.0 6.1 5.9 5.8 5.9 5.9 6.0 6.0 6.2 6.3 6.3 6.4 6.5 6.5 6.6 6.6 6.6 6.7 7.1 7.4 7.4 7.4 7.3 7.3 7.2 7.0 6.8 6.6 6.4 6.2 6.0 5.8 5.7
Wind_Speed
7 16 13 16 14 13 9 7 4 9 11 14 16 4 11 13 14 15 16 16 16 14 9 8 9 8 9 8 6 3 8 4 7 11 8 7 5 8 4 7 6 9 7 7
10 11 12 15 15 8 5 7 8 10 6 14 15 11 13 13 14 14 15 16 17 17 15 9 8 8 10 8 9 7 10 8 6 5 7 12 11 8 6 10 11 14 14 13
10 7 11 6 10 8 2 4 5 5 5 8 14 14 12 12 14 13 13 14 16 15 13 11 7 9 10 8 8 9 8 9 7 7 7 8 10 10 9 9 8 7 8 9
7 7 3 3 19 3 6 2 4 5 6 8 10 12 10 10 13 12 11 12 12 13 12 12 12 9 10 8 7 9 8 7 7 6 6 5 6 6 6 7 8 7 7 9
3 5 8 10 15 12 3 4 13 8 3 4 10 12 12 10 8 9 7 6 7 9 9 10 13 12 14 13 9 6 6 6 6 6 5 5 5 6 4 6 6 6 8 8
4 3 3 8 18 20 7 3 24 20 5 1 1 1 5 17 9 13 9 6 6 7 8 9 7 10 12 12 13 8 3 4 4 5 6 5 5 5 3 5 5 4 6 7
5 4 4 15 16 15 2 9 17 21 3 1 1 4 7 13 10 10 12 13 7 7 7 6 6 8 9 9 9 7 5 5 5 5 5 5 5 3 3 4 4 4 5 5
3 3 1 15 8 6 3 5 10 16 18 6 6 9 9 11 10 13 13 13 13 9 7 7 6 7 6 7 5 7 8 6 6 5 5 4 5 4 4 4 4 3 3 3
5 4 8 9 4 4 5 4 3 9 11 15 13 6 5 3 8 4 1 9 8 9 8 7 7 6 7 5 6 6 7 7 5 5 5 5 5 4 4 4 3 3 3 2
9 5 11 5 6 2 5 4 3 5 7 14 6 10 9 7 6 8 4 7 6 5 1 5 6 7 7 7 6 6 6 6 6 5 4 4 3 3 3 2 2 3 2 0
7 8 6 4 5 7 9 6 7 7 1 2 15 11 4 9 10 6 4 3 3 3 3 3 5 5 6 7 7 6 5 5 5 4 4 4 4 3 3 2 2 1 1 2
5 7 6 6 7 9 11 10 8 8 8 5 5 10 8 8 11 8 4 1 2 4 4 1 2 3 2 4 5 5 5 4 4 2 1 1 2 2 4 2 5 5 4 3
4 6 4 8 7 5 6 7 9 10 10 7 7 6 6 6 10 10 10 5 2 3 3 4 4 5 4 1 2 3 1 2 2 3 3 3 3 2 2 4 7 6 3 2
3 5 5 6 3 5 5 6 6 5 6 8 9 7 6 6 6 9 12 9 6 5 5 5 5 7 7 6 5 4 3 4 2 1 0 1 1 2 0 1 2 2 3 3
6 2 3 6 6 6 4 5 7 6 6 7 6 6 6 10 6 7 11 9 8 6 5 6 7 7 7 6 6 7 5 3 4 4 4 4 3 2 1 2 2 2 2 3
8 7 8 7 8 8 8 8 6 7 7 7 6 7 7 5 5 7 8 8 6 8 6 5 6 7 7 6 7 5 5 8 6 5 4 4 3 4 3 3 4 4 4 4
7 10 10 10 9 9 11 9 8 8 6 7 8 8 9 9 6 7 6 7 9 10 8 6 6 7 7 7 7 5 5 5 7 5 4 5 4 5 5 5 5 5 5 5
6 8 11 12 14 14 14 15 14 14 12 12 9 8 8 7 9 10 10 9 8 8 9 7 6 5 6 7 7 6 5 5 5 5 5 5 5 5 5 5 5 5 4 3
11 15 16 17 16 14 15 18 19 17 17 14 12 10 11 10 10 10 12 10 8 10 10 8 7 6 6 7 6 4 5 5 5 4 5 6 5 5 5 4 5 5 5 4
15 15 17 21 21 20 20 18 18 18 18 16 14 11 10 11 11 10 11 13 12 8 10 10 8 7 6 6 5 3 4 5 5 5 4 4 4 4 5 6 5 5 5 6
16 17 19 17 19 20 18 16 16 17 18 17 16 16 16 15 13 12 10 8 13 12 12 11 8 5 4 5 5 4 5 4 4 4 4 5 4 5 5 5 6 6 5 5
16 16 17 18 17 18 16 15 14 16 16 16 16 14 15 15 12 10 12 13 9 11 8 6 7 9 7 7 5 5 5 6 6 5 5 5 5 5 6 6 6 6 7 7
15 17 16 17 16 16 16 15 15 15 15 15 15 14 12 11 10 9 10 10 9 12 9 7 9 11 11 7 5 6 7 7 7 6 6 5 6 7 6 6 7 8 8 9
16 17 17 18 16 15 16 14 13 13 13 14 14 12 11 9 9 9 10 12 11 13 9 8 9 12 12 7 7 7 7 7 7 7 7 8 7 7 7 8 8 9 9 11
18 17 16 16 16 12 15 15 13 12 12 11 12 10 10 8 8 9 7 9 12 11 10 12 13 14 10 8 9 9 8 8 9 8 9 8 9 9 9 9 10 11 11 11
17 12 12 15 13 12 10 10 9 9 9 9 8 7 7 6 6 5 5 7 8 9 9 8 7 9 10 10 10 11 10 9 9 9 10 10 10 10 11 11 11 11 12 12
13 15 12 12 11 11 11 11 11 11 10 9 9 8 7 7 6 6 6 6 6 6 6 6 7 8 9 9 9 9 9 9 11 10 9 10 11 11 11 11 11 11 11 11
Wind_Direction
301 306 308 327 328 311 303 296 276 330 344 19 354 59 85 78 66 59 56 47 36 33 34 39 70 78 81 74 52 86 192 192 177 151 142 105 195 176 140 129 182 135 157 147
297 289 316 315 306 345 286 254 276 327 43 353 20 52 76 78 76 64 54 47 42 33 30 31 79 75 75 65 70 72 93 98 94 143 186 170 163 162 155 161 176 175 176 162
292 304 308 310 6 333 84 356 360 21 357 345 33 42 52 69 69 66 59 50 43 35 35 31 41 69 67 65 70 74 77 75 86 102 109 128 148 159 162 164 175 153 138 147
278 308 25 272 358 33 104 121 152 294 22 18 9 342 55 54 73 68 67 61 49 40 29 35 56 71 98 94 88 79 77 79 80 86 98 122 139 149 152 153 170 148 155 162
251 257 271 17 351 338 18 41 21 329 90 16 18 330 35 28 48 69 55 57 67 58 39 38 48 49 60 56 52 78 94 95 100 105 107 119 125 133 139 139 132 159 163 153
291 246 217 348 331 329 272 83 356 336 139 79 325 130 355 343 21 31 43 47 54 48 52 52 35 53 50 47 44 30 90 76 89 102 109 95 94 98 96 119 133 145 156 162
268 253 119 3 6 324 8 351 345 344 344 335 239 40 23 349 19 33 24 31 21 55 55 46 47 61 52 49 44 10 48 104 73 62 78 97 104 96 101 106 120 136 149 152
351 316 245 7 23 33 270 327 352 352 0 35 51 11 20 359 17 12 359 1 12 22 25 29 40 64 53 55 62 59 41 59 90 86 79 76 86 80 86 107 112 115 118 143
0 351 21 60 115 187 247 295 42 21 348 347 355 323 291 275 333 327 109 313 338 355 6 21 32 38 49 358 39 61 72 62 87 91 88 72 81 89 89 87 99 131 148 168
293 321 335 45 7 338 327 300 315 88 40 323 332 347 328 285 262 251 231 194 205 277 311 9 28 35 28 20 20 52 60 73 74 107 119 114 88 65 76 76 100 98 74 33
293 301 328 22 316 306 308 293 299 301 285 34 315 320 297 314 319 259 231 2 359 237 218 144 83 47 43 30 23 31 41 51 80 115 117 140 147 159 147 190 160 179 190 163
298 270 246 260 264 279 286 292 285 294 301 268 224 299 313 315 312 311 242 84 13 0 331 325 132 129 72 45 47 22 16 20 13 25 34 68 64 64 72 87 192 178 158 159
288 307 277 288 282 281 286 323 340 328 302 287 268 253 273 288 304 320 306 270 233 260 282 293 263 203 213 227 84 70 58 360 46 36 20 357 357 22 345 355 31 54 40 320
312 316 342 359 328 351 337 331 335 337 359 1 337 294 252 260 282 287 309 287 272 249 248 258 255 238 222 206 190 185 197 213 171 181 77 25 306 315 357 231 253 303 337 292
320 307 210 283 311 313 304 323 335 323 313 329 325 316 332 321 277 238 262 298 296 278 278 271 269 259 242 212 194 196 183 197 191 184 166 154 128 116 143 139 209 245 329 334
315 330 325 323 312 307 307 306 283 278 285 285 298 300 292 282 305 316 309 298 296 280 264 262 261 260 252 225 209 201 196 191 185 191 192 189 177 166 171 199 198 207 215 233
336 333 327 317 311 299 289 274 261 262 256 260 273 286 303 290 285 290 283 288 294 277 253 246 259 271 257 230 212 200 192 195 190 193 200 204 192 188 193 192 213 225 230 228
287 295 303 297 298 297 297 292 288 277 269 262 249 256 260 263 271 276 275 276 280 289 281 256 241 254 264 242 206 203 195 197 194 194 199 198 202 201 198 200 208 210 234 244
299 289 285 286 284 280 286 284 280 279 278 265 252 243 238 246 251 257 267 269 261 268 267 269 260 256 251 254 244 219 204 206 210 203 200 201 210 215 208 202 209 212 216 228
287 295 302 298 294 293 290 285 284 280 274 270 271 262 250 243 237 239 252 254 253 245 253 257 251 253 241 225 200 210 196 190 201 208 207 208 201 209 217 219 220 221 222 226
309 301 291 293 295 292 284 279 277 275 274 268 265 261 259 256 247 235 247 248 253 249 241 242 240 229 222 226 217 196 202 217 211 208 206 211 209 217 220 222 230 229 231 233
311 309 299 298 293 288 287 286 273 275 273 268 265 261 259 253 242 232 236 238 246 243 233 225 228 233 236 223 218 210 224 225 223 218 210 209 215 223 226 223 228 234 239 241
315 310 307 305 306 303 298 290 281 273 271 269 264 259 248 248 248 242 243 229 228 237 223 219 219 222 228 231 223 222 219 214 219 216 222 217 220 221 225 228 236 241 248 249
316 315 309 305 298 296 294 296 294 288 278 273 269 260 251 251 247 238 239 245 223 223 219 221 223 223 227 230 230 229 227 228 228 227 230 221 223 228 233 234 236 243 245 251
317 314 310 309 306 304 304 298 293 290 286 277 274 266 261 251 236 249 225 226 224 224 230 227 223 225 231 224 219 221 222 222 223 222 224 225 229 230 234 236 241 244 245 245
317 314 310 305 300 299 296 297 294 291 288 284 280 270 264 260 255 239 229 220 224 227 232 233 227 237 238 228 225 228 227 227 229 226 227 230 233 235 239 238 240 241 243 245
316 311 309 307 301 302 297 293 290 286 279 273 275 275 270 265 256 247 243 245 239 233 229 226 221 219 230 229 223 224 224 227 228 228 228 231 236 239 241 244 245 245 246 246